Regional Weather Roundup
Issued by NWS Kansas City/Pleasant Hill, MO

Home | Current Version | Previous Version | Text Only | Print | Product List | Glossary On
Versions: 1 2 3 4 5 6 7 8 9 10 11 12 13 14 15 16 17 18 19 20 21 22 23 24 25 26 27 28 29 30 31 32 33 34 35 36 37 38 39 40 41 42 43 44 45 46 47 48 49 50
000
ASUS43 KEAX 290411
RWREAX

WEATHER ROUNDUP FOR EASTERN KANSAS AND NORTHWEST MISSOURI
NATIONAL WEATHER SERVICE KANSAS CITY/PLEASANT HILL MO
1000 PM CST FRI NOV 28 2014

KSZ040-057-103>105-MOZ028-029-037-043-290500-
...KANSAS CITY METROPOLITAN AREA...

CITY           SKY/WX    TMP DP  RH WIND       PRES   REMARKS
K.C. INTL      CLOUDY    52  37  56 S17       29.73F
K.C. DOWNTOWN  MOCLDY    54  37  52 SW13      29.75F
LEES SUMMIT    CLOUDY    53  38  56 SW13      29.76F
OLATHE - IXD   CLOUDY    49  37  63 S14       29.77F
OLATHE - OJC   CLOUDY    51  37  58 S13       29.76F
LAWRENCE       CLOUDY    52  36  54 S7        29.76F

$$

MOZ001>008-011>017-020>025-030>033-038>040-044>046-053-054-290500-
...NORTHERN AND CENTRAL MISSOURI...

CITY           SKY/WX    TMP DP  RH WIND       PRES   REMARKS
ST. JOSEPH     MOCLDY    51  36  56 SW17      29.70F
MOSBY          MOCLDY    52  36  54 S5        29.74F
WARRENSBURG    CLOUDY    50  37  62 S10G16    29.78F
WHITEMAN AFB   CLOUDY    49  37  62 SW16      29.78F
CLINTON        MOCLDY    54  39  58 S12       29.83S
SEDALIA        MOCLDY    53  37  54 SW16G24   29.80F
WARSAW         NOT AVBL
MARSHALL       MOCLDY    52  39  62 S9        29.79F
CHILLICOTHE      N/A     48  36  63 S9        29.74F
KIRKSVILLE     CLOUDY    45  35  68 S9        29.76F

$$

MOZ041-047>049-056>058-063>065-088>090-097-290500-
...EASTERN AND SOUTHERN MISSOURI...

CITY           SKY/WX    TMP DP  RH WIND       PRES   REMARKS
ST. LOUIS INTL MOCLDY    45  34  65 S9        29.91S
SPIRIT OF STL  MOCLDY    44  33  65 SE3       29.89S
COLUMBIA       MOCLDY    48  35  60 S13       29.83F
JEFFERSON CITY MOCLDY    50  35  56 SE6       29.85S
MEXICO         CLOUDY    48  39  71 S13       29.82F
ROLLA          MOCLDY    45  34  65 S17       29.85F
LEBANON        PTCLDY    48  36  61 S10       29.88F
OSAGE BEACH    PTCLDY    48  34  57 S9        29.85F
SPRINGFIELD    MOCLDY    48  35  60 S14       29.88F
BRANSON        CLOUDY    48  39  71 S5        29.94S
JOPLIN         CLOUDY    56  43  61 MISG      29.86F
WEST PLAINS    PTCLDY    44  33  65 S7        29.96F

$$

IAZ060-094-KSZ022-034>040-054-083-096-NEZ052-066-093-290500-
...KANSAS...SOUTHEAST NEBRASKA AND IOWA...

CITY           SKY/WX    TMP DP  RH WIND       PRES   REMARKS
TOPEKA         CLOUDY    55  37  50 S8        29.75S
MANHATTAN      CLOUDY    51  37  58 SW9       29.73S
EMPORIA        CLOUDY    50  38  63 S13       29.77F
CHANUTE        CLOUDY    55  43  63 S14       29.82F
WICHITA        CLOUDY    50  40  68 S10       29.77F
OMAHA          MOCLDY    40  31  70 SE10      29.62F WCI  33
LINCOLN        PTCLDY    47  32  56 E3        29.64S
FALLS CITY     CLOUDY    53  36  52 SW23G29   29.66F
LAMONI         MOCLDY    41  33  73 S9        29.69F
DES MOINES     PTCLDY    38  30  73 SE10      29.68F WCI  31

$$




USA.gov is the U.S. government's official web portal to all federal, state and local government web resources and services.